Terug naar catalogus

JILIN-1 GAOFEN 03D-52

ActiefWetenschapPO
NORAD 54253·PAYLOAD·🇨🇳 China
Deze satellietnaam is nog niet bevestigd door officiële bronnen.

Gelanceerd Nov 16, 2022 vanaf Jiuquan Satellite Launch Center

Loading…

Volgende Passages (komende 24 uur)

TLE

VersSource: Space-Track

Epoch: Sep 14, 2026, 13:49 UTC

1 54253U 22155C   26257.57593632  .00033220  00000-0  43937-3 0  9995
2 54253  97.6339  43.9789 0005002  44.9158 315.2501 15.58256991213381

Volg JILIN-1 GAOFEN 03D-52 in realtime met AllMySat

Download on the App Store